sat.trackr.live / text

‹ back to catalog

STARLINK-32836

NORAD 62965 · 2025-029T

PAYLOAD ACTIVE UNKNOWN

§ Identity

Operator
Country
US
Launch date
2025-02-11
Launch site
AFWTR
Launch vehicle
Mass (kg)
RCS (m²)

Purposes: comms

External: N2YO · Heavens-Above · Gunter

§ Orbital elements

Epoch: 2026-09-21T16:16:53.561280Z

Period
93.85 min
Inclination
53.1588°
Eccentricity
0.0001119
Mean motion
15.34396255 rev/d
Perigee alt
461.9 km
Apogee alt
463.5 km
Semi-major
6,840.9 km
B*
4.5388e-4
RAAN
36.4831°
Arg perigee
91.9575°
Mean anomaly
268.1555°
Rev number
9,140

§ Raw data

STARLINK-328361 62965U 25029T   26264.67839770  .00014988  00000+0  45388-3 0  99932 62965  53.1588  36.4831 0001119  91.9575 268.1555 15.34396255 91402

JSON: /api/v1/satellites/62965 · /tle

For live sub-satellite position, see the globe view (requires WebGL).

§ Visibility from observer

Set your observer location to see the next 7 days of passes ≥ 10°. The values pass through the URL so the page stays shareable.

No JS? Fill the form by hand. The geolocation button needs JavaScript.